Hourly Data Report for July 21, 2004

SHERBROOKE A
QUEBEC

45°26'00.000" N
71°41'00.000" W
241.40 m
7028124
71610
YSC

Download Data

Hourly Data (July 2004)
Hourly Data Report for July 21, 2004
TIME
LST
Temp Definition
°C
Dew Point Definition
°C
Rel Hum Definition
%
Precip. Amount Definition
mm

Wind Dir Definition
10's deg

Wind Spd Definition
km/h
Visibility Definition
km
Stn Press Definition
kPa
Hmdx Definition


Wind Chill Definition


Weather Definition


00:00 14.4 13.9 97     0 1.6 98.43      
01:00 13.8 13.4 97   8 4 6.4 98.43      
02:00 13.1 12.8 98   8 4 2.4 98.42      
03:00 13.8 13.4 97     0 6.4 98.46      
04:00 13.5 12.9 96   24 4 11.3 98.51      
05:00 13.9 13.4 97     0 8.0 98.54      
06:00 16.5 15.6 94     0 8.0 98.58      
07:00 18.8 17.1 90     0 19.3 98.63     Mainly Clear
08:00 20.6 17.5 82   22 9 19.3 98.62 26   Mainly Clear
09:00 22.2 18.4 79   23 13 19.3 98.61 29   Mostly Cloudy
10:00 23.0 18.0 73   25 13 19.3 98.62 29   Mostly Cloudy
11:00 24.2 18.2 69   22 7 19.3 98.58 30   Mostly Cloudy
12:00 25.8 19.1 67   20 4 19.3 98.55 33   Mostly Cloudy
13:00 26.1 18.8 64   24 11 19.3 98.50 33   Mostly Cloudy
14:00 25.6 18.3 64   24 6 19.3 98.52 32   Mostly Cloudy
15:00 27.1 18.6 60   27 7 19.3 98.49 34   Mainly Clear
16:00 27.0 18.4 59   27 7 19.3 98.47 33   Mainly Clear
17:00 26.7 17.7 58   23 4 15.0 98.47 32    
18:00 26.3 18.4 62     0 15.0 98.47 33    
19:00 22.6 19.8 84     0 15.0 98.48 30    
20:00 19.7 17.9 89   16 6 11.3 98.50      
21:00 18.4 17.5 94   10 6 8.0 98.51      
22:00 17.8 16.8 94   10 6 8.0 98.50      
23:00 17.7 16.7 94   8 4 6.4 98.47      

Notes on Data Quality.

Legend

  • E = Estimated
  • M = Missing
  • NA = Not Available*
  • [empty] = Indicates an unobserved value
Date modified: